Other Public Products
Issued by NWS Grand Forks, ND

Home | Current Version | Previous Version | Text Only | Print | Product List | Glossary Off
Versions: 1 2 3 4 5 6 7 8 9 10 11 12 13 14 15 16 17 18 19 20 21 22 23 24 25 26 27 28 29 30 31 32 33 34 35 36 37 38 39 40 41 42 43 44 45 46 47 48 49 50

000
FPUS83 KFGF 221031
OPUFGF
PRAIRIE TO PINES WEATHER ROUNDUP
NATIONAL WEATHER SERVICE EASTERN NORTH DAKOTA/GRAND FORKS ND
400 AM CST SUN JAN 22 2017

 **SATELLITE DATA USED TO AUGMENT SKY COVER AT AUTOMATED STATIONS**
 *****  WEATHER ACROSS EASTERN NORTH DAKOTA  *****

CITY           SKY/WX    TMP DP  RH WIND       PRES   REMARKS
GRAND FORKS    CLOUDY    34  32  92 W5        29.64S FOG
GRAND FORKS AF CLOUDY    32  32 100 W5        29.64S
GRAND CITY NWS NOT AVBL
BUXTON           N/A     33  33  99 W3          N/A
DEVILS LAKE    CLOUDY    30  28  92 W10       29.64R FOG     WCI  21
FARGO          FOG       35  34  96 CALM      29.65R VSB 3/4
WAHPETON ARPT  CLOUDY    32  32 100 NW3       29.65S VSB 3/4
$$

 *****  WEATHER ACROSS CENTRAL AND WESTERN NORTH DAKOTA  *****

CITY           SKY/WX    TMP DP  RH WIND       PRES   REMARKS
JAMESTOWN      CLOUDY    30  28  92 W13       29.64R FOG     WCI  20
BISMARCK       CLOUDY    26  24  92 W3        29.69R FOG
MINOT          CLOUDY    32  28  85 W10       29.63R WCI  24
MINOT AFB      MOCLDY    30  27  86 NW15      29.63R WCI  19
GARRISON         N/A     29  27  92 W12       29.64R WCI  19
WILLISTON      CLOUDY    30  28  92 W9        29.70R WCI  22
DICKINSON      MOCLDY    12  10  92 W6        29.67R WCI   3
HETTINGER      FAIR      19  15  84 NW9       29.69R WCI   8
$$

 *****  OTHER OBSERVATIONS NORTHEAST NORTH DAKOTA  *****

CITY           SKY/WX    TMP DP  RH WIND       PRES   REMARKS
WALHALLA       NOT AVBL
LANGDON        NOT AVBL
CAVALIER       FOG       32  32 100 CALM      29.64S VSB 1
GRAFTON        CLOUDY    32  32 100 W3        29.66R FOG
CANDO          NOT AVBL
FORT TOTTEN      N/A     29  29 100 W6        29.95S WCI  23
ROLLA            N/A    N/A N/A N/A MISG        N/A
RUGBY            N/A     28  28 100 NW14      29.64R FOG     WCI  17
 ***** THE ABOVE OBSERVATIONS ARE NON NWS ARE NOT QUALITY
        CONTROLLED AND MAY MIS-REPORT RAIN FOR SNOW...
$$

 *****  OTHER OBSERVATIONS SOUTHEAST NORTH DAKOTA *****

CITY           SKY/WX    TMP DP  RH WIND       PRES   REMARKS
COOPERSTOWN    CLOUDY    32  32 100 W10       29.64R FOG     WCI  24
VALLEY CITY    CLOUDY    32  32 100 NW7       29.66R FOG
OAKES          NOT AVBL
GWINNER        CLOUDY    34  34 100 W9        29.66R
SHEYENNE NWR     N/A     33  33 100 NW3       29.95S
BUFFALO          N/A     32  32  97 W6          N/A
WYNDMERE         N/A     34  34 100 W3          N/A
 ***** THE ABOVE OBSERVATIONS ARE NON NWS ARE NOT QUALITY
       CONTROLLED AND MAY MIS-REPORT RAIN FOR SNOW...
$$

  *****  WEATHER ACROSS NORTHERN MINNESOTA  *****

CITY           SKY/WX    TMP DP  RH WIND       PRES   REMARKS
FLAG ISLAND    FOG       34  32  93 CALM      29.64S VSB 1/2
WARROAD        FOG       34  28  80 CALM      29.65S VSB 1/2
ROSEAU         HAZE      34  28  80 CALM      29.65R VSB 1
HALLOCK        FOG       34  34 100 CALM      29.64S VSB 1/4
THF RVR FALLS  FOG       33  32  96 CALM      29.64R VSB 1/4
HALSTAD          N/A     33  34 100 CALM        N/A
FOSSTON        FOG       30  30 100 CALM      29.63S VSB 1/2
BAUDETTE       CLOUDY    33  32  96 NW3       29.63S FOG
WASKISH        FOG       34  34 100 CALM      29.63R VSB 3/4
CROOKSTON      FOG       34  34 100 CALM      29.65R VSB 1/4
$$
  *****  WEATHER ACROSS CENTRAL AND WEST MINNESOTA  *****

CITY           SKY/WX    TMP DP  RH WIND       PRES   REMARKS
BEMIDJI        CLOUDY    32  32 100 CALM      29.63R FOG
PARK RAPIDS    FOG       34  31  88 N3        29.60S VSB 3/4
WADENA         CLOUDY    34  34 100 CALM      29.62R FOG
DETROIT LAKES  FOG       34  34 100 NW3       29.64R VSB 3/4
MOORHEAD       FOG       34  32  93 CALM      29.66R VSB 1/2
FERGUS FALLS   LGT RAIN  34  34 100 CALM      29.68S VSB 1/2
ELBOW LAKE     SNOW      32  32 100 NW5       29.64S VSB 1/4
MORRIS MN      FOG       34  34 100 NW8       29.63R VSB 1/2
STAPLES        FOG       32  32 100 W3        29.62R VSB 1/2
WHEATON        CLOUDY    39  39 100 W3        29.67S FOG
$$
  *****  WEATHER ELSEWHERE ACROSS MINNESOTA  *****

CITY           SKY/WX    TMP DP  RH WIND       PRES   REMARKS
DULUTH         DRZL/FOG  34  33  96 N6        29.57S VSB 1
INTRNTL FALLS  FOG       34  33  96 CALM      29.62R VSB 1/2
ELY            CLOUDY    34  34 100 CALM      29.60R FOG
CLOQUET        CLOUDY    34  34 100 NW3       29.60R FOG
BRAINERD       CLOUDY    33  33 100 CALM      29.61S FOG
HIBBING        CLOUDY    32  32 100 N3        29.60S FOG
ALEXANDRIA     CLOUDY    33  33 100 NW3       29.63R FOG
SAINT CLOUD    CLOUDY    33  33 100 NW6       29.60R FOG
MINNEAPOLIS    CLOUDY    35  34  96 NW3       29.59R
$$

  *****  WEATHER ACROSS SOUTH DAKOTA  *****

CITY           SKY/WX    TMP DP  RH WIND       PRES   REMARKS
SIOUX FALLS    CLOUDY    32  31  96 NW10      29.64R WCI  24
BROOKINGS      LGT SNOW  32  31  96 NW9       29.62S FOG     WCI  24
WATERTOWN      CLOUDY    32  31  96 NW7       29.62S FOG
HURON          CLOUDY    30  28  92 NW14      29.69R WCI  19
SISSETON         N/A     34  34 100 N8        29.64R
ABERDEEN       CLOUDY    28  25  88 W9        29.70R FOG     WCI  19
MITCHELL       CLOUDY    31  29  92 NW7       29.69R WCI  24
PIERRE         FAIR      19  16  88 W12       29.71R WCI   7
MOBRIDGE       FAIR      14  10  84 N6        29.67R WCI   5
RAPID CITY     FAIR      27  20  75 NW8       29.72R WCI  19
$$

  *****  SOME WEATHER IN NEARBY STATES *****

CITY           SKY/WX    TMP DP  RH WIND       PRES   REMARKS
GLASGOW MT     CLOUDY    25  25 100 W9        29.74R FOG     WCI  15
GREAT FALLS MT CLOUDY    24  18  77 SW3       29.78R
CHEYENNE WY    FAIR      29  15  56 W12       29.75R WCI  19
SCOTTSBLUFF NE FAIR      24  20  84 NW8       29.76R WCI  15
OMAHA NE       MOCLDY    31  27  85 N14       29.65R WCI  21
DES MOINES IA  CLOUDY    34  33  96 N7        29.60R FOG
DAVENPORT IA   FOG       31  29  92 CALM      29.58S VSB 1/4
CHICAGO IL     CLOUDY    39  39 100 CALM      29.58R FOG
EAU CLAIRE WI  FOG       34  32  92 CALM      29.56S VSB 1/2
LA CROSSE WI   FOG       38  35  89 CALM      29.57S VSB 1/2
$$

  *****  SOME NATIONAL WEATHER *****

CITY           SKY/WX    TMP DP  RH WIND       PRES   REMARKS
LA GUARDIA NY  FOG       46  44  93 CALM      29.72S VSB 1
RALEIGH NC     CLOUDY    53  52  96 CALM      29.65F
ATLANTA GA     LGT RAIN  57  57 100 SE12      29.56F
NEW ORLEANS LA FAIR      68  67  96 W5        29.49F FOG
OKLAHOMA CITY  MOCLDY    46  43  89 NW9       29.39R
ALBUQUERQUE NM FAIR      35  21  56 NW12      29.98R
SALT LAKE CITY FAIR      28  24  85 SE13      29.98R WCI  17
LOS ANGELES CA LGT RAIN  53  48  83 E6        30.10S
BOISE ID       FAIR      36  28  73 E13       29.82S
SEATTLE WA     CLOUDY    44  37  76 E13       29.55F
$$

*** WEATHER ACROSS MANITOBA...SASKATCHEWAN AND ONTARIO ***
                ***ONTARIO***

CITY           SKY/WX    TMP DP  RH WIND       PRES   REMARKS
GERALDTON      LGT SNOW  30  30 100 NE10      29.66F FOG     WCI  21
THUNDER BAY    LGT SNOW  32  32 100 W2        29.61S
SIOUX LOOKOUT  LGT SNOW  34  32  93 CALM      29.65R FOG
TORONTO        FOG       39  37  93 E2        29.69S VSB 1/4
BIG TROUT LK   CLOUDY    23  23 100 E6        29.82R WCI  16
PICKLE LAKE    NOT AVBL
DRYDEN         FOG       34  34 100 NE6       29.63S VSB 1/4
KENORA         FOG       32  32 100 NE3       29.64R VSB 1/4
$$
                *** MANITOBA***

CITY           SKY/WX    TMP DP  RH WIND       PRES   REMARKS
BRANDON        FOG       32  32 100 W7        29.61R VSB 3/4
DAUPHIN        LGT RAIN  32  32 100 CALM      29.62S FOG
ISLAND LAKE    CLOUDY    30  30 100 VRB2      29.71R
PILOT MOUND      N/A     30  30 100 SW8         N/A  WCI  23
THE PAS        FOG       32  32 100 NE5       29.65R VSB 3/4
THOMPSON       FLURRIES  28  27  93 NE6       29.73R WCI  22
WINNIPEG       CLOUDY    34  34 100 SE6       29.65S FOG
LYNN LAKE      LGT SNOW  27  27 100 NE7       29.75R WCI  19
CHURCHILL      FLURRIES  19  19 100 E6        29.90S WCI  11
GILLAM         CLOUDY    27  25  93 E3        29.80R FOG
$$
                ***SASKATCHEWAN***

CITY           SKY/WX    TMP DP  RH WIND       PRES   REMARKS
ESTEVAN        CLOUDY    27  27 100 NW15      29.65R WCI  15
KINDERSLEY     FLURRIES  25  23  93 N15       29.75R WCI  12
LLOYDMINSTER   CLOUDY    19  19 100 N12G22    29.81S WCI   7
PRINCE ALBERT  FLURRIES  27  23  86 N9        29.68R WCI  17
REGINA         FLURRIES  25  23  93 NW7       29.65R WCI  17
YORKTON        LGT SNOW  27  25  93 W7        29.61R WCC1F1C2F2C3F3C4F4C5F5C6F6C7F7C8F8C9F9CaFaCbFbCcFcCdFdCe!


USA.gov is the U.S. government's official web portal to all federal, state and local government web resources and services.